Chubbuck, ID

9:29 PM MDT on September 28, 2016 (GMT -0600)
Pocatello Regional

Weather History for KPIH - December, 2013

Change the Weather History Date:

Sunday, December 1, 2013

  Actual Average Record
Temperature  
Mean Temperature 44 °F 27 °F  
Max Temperature 50 °F 36 °F 64 °F (1995)
Min Temperature 38 °F 19 °F -3 °F (1967)
Degree Days  
Heating Degree Days 21 38  
Month to date heating degree days 21 38  
Since 1 July heating degree days 1633 1766  
Cooling Degree Days 0 0  
Month to date cooling degree days 0 0  
Year to date cooling degree days 688 392  
Moisture  
Dew Point 34 °F    
Average Humidity 63    
Maximum Humidity 79    
Minimum Humidity 46    
Precipitation  
Precipitation T in 0.04 in 0.91 in (1982)
Month to date precipitation T 0.04  
Year to date precipitation 5.74 10.93  
Snow  
Snow 0.00 in - - ()
Month to date snowfall 0.0  
Since 1 July snowfall 1.5  
Snow Depth 0.00 in    
Sea Level Pressure  
Sea Level Pressure 30.16 in    
Wind  
Wind Speed 18 mph (SW)    
Max Wind Speed 36 mph    
Max Gust Speed 42 mph    
Visibility 10 miles    
Events Rain    
T = Trace of Precipitation, MM = Missing Value Source: NWS Daily Summary

Daily Weather History Graph

Daily Weather History Graph

Search for Another Location

Airport or City:

Trip Planner

Search our weather history database for the weather conditions in past years. The results will help you decide how hot, cold, wet, or windy it might be!

Date:

Astronomy

Dec. 01, 2013 Rise Set
Actual Time 7:41 AM MST 4:56 PM MST
Civil Twilight 7:10 AM MST 5:28 PM MST
Nautical Twilight 6:34 AM MST 6:03 PM MST
Astronomical Twilight 6:00 AM MST 6:38 PM MST
Moon 6:02 AM MST (12/1) 4:11 PM MST (12/1)
Length of Visible Light 10h 18m
Length of Day
9h 14m
Waning Crescent, 2% of the Moon is Illuminated
Dec 1
Waning Crescent
Dec 2
New
Dec 9
First Quarter
Dec 17
Full
Dec 25
Last Quarter

Hourly Weather History & Observations

Time (MST) Temp. Windchill Dew Point Humidity Pressure Visibility Wind Dir Wind Speed Gust Speed Precip Events Conditions
12:53 AM 39.0 °F 32.3 °F 33.1 °F 79% 30.30 in 10.0 mi SW 10.4 mph - N/A   Overcast
1:05 AM 39.0 °F 31.4 °F 33.1 °F 79% 30.28 in 10.0 mi SSW 12.7 mph - N/A   Overcast
1:53 AM 39.9 °F 34.5 °F 33.1 °F 77% 30.28 in 10.0 mi SSW 8.1 mph - N/A   Overcast
2:53 AM 39.9 °F 33.9 °F 33.1 °F 77% 30.27 in 10.0 mi SSW 9.2 mph - N/A   Overcast
3:53 AM 39.9 °F 31.8 °F 34.0 °F 79% 30.27 in 10.0 mi SSW 15.0 mph - N/A   Overcast
4:12 AM 39.9 °F 31.8 °F 34.0 °F 79% 30.26 in 10.0 mi SSW 15.0 mph - N/A   Overcast
4:40 AM 39.0 °F 31.4 °F 34.0 °F 82% 30.25 in 10.0 mi SSW 12.7 mph - N/A   Overcast
4:53 AM 39.0 °F 31.8 °F 34.0 °F 82% 30.26 in 10.0 mi SSW 11.5 mph - N/A   Overcast
5:53 AM 39.9 °F 32.5 °F 34.0 °F 79% 30.26 in 10.0 mi SW 12.7 mph - N/A   Overcast
6:53 AM 39.9 °F 33.4 °F 34.0 °F 79% 30.25 in 10.0 mi SW 10.4 mph - N/A   Overcast
7:53 AM 41.0 °F 33.1 °F 34.0 °F 76% 30.25 in 10.0 mi SSW 15.0 mph - N/A   Overcast
8:53 AM 42.1 °F 35.2 °F 34.0 °F 73% 30.24 in 10.0 mi SSW 12.7 mph - N/A   Overcast
9:53 AM 43.0 °F 35.1 °F 34.0 °F 71% 30.23 in 10.0 mi WSW 17.3 mph - 0.00 in Rain Light Rain
10:53 AM 44.1 °F 37.4 °F 33.1 °F 65% 30.22 in 10.0 mi SW 13.8 mph - 0.00 in   Overcast
11:53 AM 45.0 °F 37.1 °F 34.0 °F 65% 30.19 in 10.0 mi SSW 19.6 mph 25.3 mph 0.00 in   Overcast
12:53 PM 43.0 °F 35.4 °F 33.1 °F 68% 30.16 in 10.0 mi SW 16.1 mph - N/A   Overcast
1:53 PM 42.1 °F 32.8 °F 34.0 °F 73% 30.14 in 10.0 mi SSW 21.9 mph 28.8 mph 0.00 in   Overcast
2:53 PM 41.0 °F 31.1 °F 35.1 °F 79% 30.11 in 10.0 mi South 23.0 mph 29.9 mph 0.00 in Rain Light Rain
3:53 PM 44.1 °F 34.2 °F 35.1 °F 71% 30.08 in 10.0 mi South 28.8 mph 38.0 mph 0.00 in   Overcast
4:53 PM 45.0 °F 36.4 °F 35.1 °F 68% 30.06 in 10.0 mi SSW 23.0 mph 31.1 mph N/A   Overcast
5:53 PM 46.0 °F 38.5 °F 35.1 °F 66% 30.05 in 10.0 mi SSW 19.6 mph - N/A   Mostly Cloudy
6:53 PM 48.0 °F - 34.0 °F 58% 30.03 in 10.0 mi SW 16.1 mph 27.6 mph N/A   Overcast
7:53 PM 48.9 °F - 33.1 °F 54% 30.01 in 10.0 mi SW 24.2 mph 32.2 mph N/A   Mostly Cloudy
8:53 PM 48.9 °F - 33.1 °F 54% 30.00 in 10.0 mi SW 24.2 mph 32.2 mph N/A   Mostly Cloudy
9:53 PM 50.0 °F - 32.0 °F 50% 29.98 in 10.0 mi SW 28.8 mph 40.3 mph N/A   Scattered Clouds
10:53 PM 50.0 °F - 30.9 °F 48% 29.96 in 10.0 mi WSW 27.6 mph 41.4 mph N/A   Clear
11:53 PM 48.9 °F - 30.9 °F 50% 29.96 in 10.0 mi WSW 27.6 mph 38.0 mph N/A   Clear